Location: Fort Worth, Tx
(32.7431°N, 97.3695°W)
Time: 06:36:15
(UTC-04:00)

Transit 2A Rocket - All Passes

Search period start: 20 April 2024 00:00
Search period end: 30 April 2024 00:00
Orbit: 587 x 907 km, 66.7° (Epoch: 20 April)

Date Brightness Start Highest point End Pass type
(mag) Time Alt. Az. Time Alt. Az. Time Alt. Az.
20 Apr - 12:31:33 10° SE 12:34:21 17° ESE 12:37:15 10° ENE daylight
20 Apr - 14:12:22 10° SW 14:16:23 34° WNW 14:20:41 10° N daylight
20 Apr - 22:57:58 10° NNW 23:03:41 61° ENE 23:09:38 10° SE visible
21 Apr - 00:42:06 10° WNW 00:45:44 17° WSW 00:49:27 10° SW visible
21 Apr - 13:28:01 10° SSW 13:32:21 72° WNW 13:37:02 10° NNE daylight
21 Apr - 22:14:23 10° N 22:19:37 35° ENE 22:25:03 10° ESE visible
21 Apr - 23:56:56 10° NW 00:02:02 31° WSW 00:07:15 10° SSW visible
22 Apr - 12:44:16 10° S 12:48:29 52° ESE 12:53:00 10° NE daylight
22 Apr - 14:29:00 10° W 14:31:20 14° NW 14:33:46 10° NNW daylight
22 Apr - 21:31:11 10° N 21:35:25 21° NE 21:39:45 10° E visible
22 Apr - 23:12:31 10° NW 23:18:12 57° WSW 23:24:07 10° S visible
23 Apr - 12:01:14 10° SSE 12:04:45 24° ESE 12:08:27 10° NE daylight
23 Apr - 13:43:21 10° WSW 13:47:03 25° NW 13:50:59 10° N daylight
23 Apr - 20:48:58 10° NNE 20:51:03 12° NE 20:53:10 10° ENE daylight
23 Apr - 22:28:28 10° NNW 22:34:18 81° ENE 22:40:21 10° SSE visible
24 Apr - 00:13:57 10° W 00:16:11 12° WSW 00:18:26 10° SW visible
24 Apr - 11:19:48 10° ESE 11:21:09 11° ESE 11:22:29 10° E daylight
24 Apr - 12:58:39 10° SW 13:02:55 50° WNW 13:07:31 10° NNE daylight
24 Apr - 21:44:44 10° NNW 21:50:16 45° ENE 21:56:02 10° SE visible
24 Apr - 23:27:57 10° NW 23:32:31 24° WSW 23:37:10 10° SSW visible
25 Apr - 12:14:36 10° SSW 12:18:57 76° ESE 12:23:39 10° NNE daylight
25 Apr - 14:01:26 10° NW 14:02:06 10° NW 14:02:46 10° NW daylight
25 Apr - 21:01:18 10° N 21:06:07 26° NE 21:11:06 10° ESE daylight
25 Apr - 22:43:14 10° NW 22:48:44 43° WSW 22:54:23 10° S visible
26 Apr - 11:31:11 10° S 11:35:08 35° ESE 11:39:22 10° NE daylight
26 Apr - 13:14:28 10° W 13:17:42 19° NW 13:21:07 10° N daylight
26 Apr - 20:18:25 10° NNE 20:21:48 16° NE 20:25:17 10° E daylight
26 Apr - 21:59:00 10° NNW 22:04:50 78° WSW 22:10:54 10° SSE visible
27 Apr - 10:48:40 10° SE 10:51:27 17° ESE 10:54:21 10° ENE daylight
27 Apr - 12:29:23 10° SW 12:33:28 36° WNW 12:37:53 10° N daylight
27 Apr - 21:15:06 10° NNW 21:20:51 60° ENE 21:26:49 10° SE daylight
27 Apr - 22:59:08 10° WNW 23:02:55 18° WSW 23:06:45 10° SW visible
28 Apr - 11:45:02 10° SSW 11:49:24 75° WNW 11:54:10 10° NNE daylight
28 Apr - 20:31:29 10° N 20:36:45 34° ENE 20:42:10 10° ESE daylight
28 Apr - 22:14:00 10° NW 22:19:10 32° WSW 22:24:28 10° S visible
29 Apr - 11:01:17 10° S 11:05:30 50° ESE 11:10:05 10° NE daylight
29 Apr - 12:45:48 10° W 12:48:21 15° NW 12:50:59 10° NNW daylight
29 Apr - 19:48:16 10° N 19:52:29 20° NE 19:56:49 10° E daylight
29 Apr - 21:29:33 10° NW 21:35:19 59° WSW 21:41:15 10° S visible
